Weather in Matur

Russia / Republic of Khakassia     52°39′21″N   89°27′29″E
temp.,
°C
wind,
m/s
gust,
m/s
humid.,
%
clouds,
%
prec.,
mm/h
press.,
hPa
HPBL,
m
6 may, thu
thu601:00+5wsw0176100 0.0 101610
04:00+5n0077100 0.0 101510
07:00+7ne1175100 0.0 101454
10:00+13ene225494 0.0 1012417
13:00+18e11395 0.0 1010715
16:00+21se023453 0.0 10081000
19:00+18sse1154100 0.0 100811
22:00+13w1167100 0.0 100912
7 may, fri
fri701:00+12wsw1166100 0.0 100913
04:00+11wsw1167100 0.0 100811
07:00+12wsw1164100 0.0 100924
10:00+17se1149100 0.0 1008210
13:00+17w3956100 0.0 10091139
16:00+13w51186100 0.8 1011937
19:00+11w51091100 2.9 1013903
22:00+9wsw4128716 0.4 1016603
8 may, sat
sat801:00+8wsw412856 0.4 1017570
04:00+7wsw38885 0.0 1019289
07:00+7wsw310785 0.0 10201058
10:00+11w610525 0.0 10201627
13:00+14w68405 0.0 10181859
16:00+15w58385 0.0 10171980
19:00+13w48505 0.0 10181575
22:00+8wsw310685 0.0 1021283
9 may, sun
sun901:00+8sw31167100 0.0 1020400
04:00+7wsw286885 0.0 1019228
07:00+9wsw4116158 0.0 1019868
10:00+13w61149100 0.0 10181472
13:00+14wnw594899 0.0 10172179
16:00+16nw58426 0.0 10162146
19:00+12ne3454100 0.0 1017475
22:00+5nne128665 0.0 102271
10 may, mon
mon1001:00+4ne118620 0.0 102018
04:00+2ne228828 0.0 102033
07:00+4ne277098 0.0 1019474
10:00+8ene4659100 0.0 1017808
13:00+11ene5655100 0.0 1014956
16:00+12ene4552100 0.0 10111009
19:00+10ene4860100 0.0 1010684
22:00+6ne1173100 0.0 101115